Location: Stara Lesna
(49.1528°N, 20.2911°E)
Time: 22:34:42
(UTC+02:00)

Cosmos 1656 Rocket - Pass Details

Date: 21 September 2019
Orbit: 796 x 846 km, 71.1° (Epoch: 13 October)

Event Time Altitude Azimuth Distance (km) Brightness Sun altitude
Exits shadow 05:21:45 14° 246° (WSW) 2,220 5.2 -10.8°
Maximum altitude 05:26:13 37° 310° (NW) 1,296 4.4 -10.0°
Drops below altitude 10° 05:31:26 10° 17° (NNE) 2,459 6.5 -9.2°
Sets 05:34:04 0° 26° (NNE) 3,389 7.4 -8.8°
